Caldwell, NJ

8:13 PM EDT on September 16, 2019 (GMT -0400)
Essex County

Weather History for KCDW - May, 2019

Change the Weather History Date:

Thursday, May 2, 2019

  Actual Average Record
Temperature  
Mean Temperature 65 °F -  
Max Temperature 82 °F 70 °F 90 °F (2001)
Min Temperature 50 °F 45 °F 32 °F (1979)
Growing Degree Days 15 (Base 50)    
Moisture  
Dew Point 53 °F    
Average Humidity 88    
Maximum Humidity 100    
Minimum Humidity 50    
Precipitation  
Precipitation 0.03 in - - ()
Sea Level Pressure  
Sea Level Pressure 30.15 in    
Wind  
Wind Speed 2 mph (SE)    
Max Wind Speed 16 mph    
Max Gust Speed 22 mph    
Visibility 4 miles    
Events Fog    
Averages and records for this station are not official NWS values.
T = Trace of Precipitation, MM = Missing Value Source: NWS Daily Summary

Daily Weather History Graph

Daily Weather History Graph

Search for Another Location

Airport or City:

Astronomy

May. 02, 2019 Rise Set
Actual Time 5:54 AM EDT 7:54 PM EDT
Civil Twilight 5:24 AM EDT 8:24 PM EDT
Nautical Twilight 4:48 AM EDT 9:01 PM EDT
Astronomical Twilight 4:08 AM EDT 9:40 PM EDT
Moon 5:07 AM EDT (5/2) 5:37 PM EDT (5/2)
Length of Visible Light 14h 59m
Length of Day
14h 00m
Waning Crescent, 5% of the Moon is Illuminated
May 2
Waning Crescent
May 4
New
May 11
First Quarter
May 18
Full
May 26
Last Quarter

Hourly Weather History & Observations

Time (EDT) Temp. Heat Index Dew Point Humidity Pressure Visibility Wind Dir Wind Speed Gust Speed Precip Events Conditions
12:27 AM 51.1 °F - 51.1 °F 100% 30.19 in 1.0 mi Calm Calm - N/A   Overcast
12:41 AM 51.1 °F - 51.1 °F 100% 30.19 in 0.8 mi Calm Calm - N/A   Overcast
12:53 AM 51.1 °F - 51.1 °F 100% 30.20 in 0.8 mi Calm Calm - N/A   Overcast
1:53 AM 51.1 °F - 51.1 °F 100% 30.16 in 0.5 mi Calm Calm - N/A Fog Fog
2:04 AM 51.1 °F - 50.0 °F 96% 30.14 in 0.2 mi Calm Calm - N/A Fog Fog
2:19 AM 50.0 °F - 50.0 °F 100% 30.13 in 0.5 mi Calm Calm - N/A Fog Fog
2:41 AM 51.1 °F - 51.1 °F 100% 30.14 in 0.5 mi Calm Calm - N/A Fog Fog
2:53 AM 51.1 °F - 51.1 °F 100% 30.15 in 0.5 mi Calm Calm - N/A Fog Fog
3:11 AM 50.0 °F - 50.0 °F 100% 30.13 in 1.0 mi Calm Calm - N/A   Overcast
3:20 AM 51.1 °F - 51.1 °F 100% 30.13 in 0.8 mi Calm Calm - N/A   Overcast
3:30 AM 51.1 °F - 51.1 °F 100% 30.13 in 0.5 mi Calm Calm - N/A Fog Fog
3:53 AM 51.1 °F - 51.1 °F 100% 30.14 in 0.5 mi Calm Calm - N/A Fog Fog
4:07 AM 51.1 °F - 51.1 °F 100% 30.12 in 0.5 mi Calm Calm - N/A Fog Fog
4:37 AM 51.1 °F - 51.1 °F 100% 30.12 in 1.0 mi Calm Calm - N/A   Overcast
4:53 AM 51.1 °F - 51.1 °F 100% 30.14 in 1.0 mi Calm Calm - N/A   Overcast
5:03 AM 51.1 °F - 51.1 °F 100% 30.12 in 1.2 mi Calm Calm - N/A   Overcast
5:53 AM 51.1 °F - 51.1 °F 100% 30.13 in 1.5 mi South 3.5 mph - N/A   Overcast
6:26 AM 51.1 °F - 51.1 °F 100% 30.12 in 2.0 mi SW 3.5 mph - N/A   Overcast
6:42 AM 52.0 °F - 52.0 °F 100% 30.12 in 1.8 mi Calm Calm - N/A   Overcast
6:53 AM 52.0 °F - 52.0 °F 100% 30.14 in 2.0 mi Variable 3.5 mph - N/A   Overcast
7:53 AM 53.1 °F - 53.1 °F 100% 30.13 in 4.0 mi Calm Calm - N/A   Overcast
8:53 AM 55.0 °F - 53.1 °F 93% 30.15 in 5.0 mi Variable 3.5 mph - N/A   Overcast
9:00 AM 55.0 °F - 53.1 °F 93% 30.13 in 5.0 mi Calm Calm - N/A   Overcast
9:53 AM 60.1 °F - 55.0 °F 83% 30.15 in 6.0 mi Calm Calm - N/A   Haze
9:58 AM 60.1 °F - 55.0 °F 83% 30.13 in 6.0 mi Calm Calm - N/A   Haze
10:53 AM 64.0 °F - 55.9 °F 75% 30.15 in 8.0 mi Calm Calm - N/A   Clear
11:53 AM 71.1 °F - 57.9 °F 63% 30.12 in 10.0 mi NW 3.5 mph - N/A   Clear
12:53 PM 75.0 °F - 57.9 °F 55% 30.12 in 10.0 mi Calm Calm - N/A   Clear
1:53 PM 78.1 °F - 60.1 °F 54% 30.09 in 10.0 mi Variable 5.8 mph - N/A   Clear
2:53 PM 80.1 °F 80.9 °F 60.1 °F 50% 30.08 in 10.0 mi North - - N/A   Partly Cloudy
3:53 PM 78.1 °F - 59.0 °F 52% 30.07 in 10.0 mi SSE 12.7 mph - N/A   Overcast
4:53 PM 73.9 °F - 57.9 °F 57% 30.07 in 5.0 mi ESE 16.1 mph 21.9 mph N/A   Haze
5:53 PM 66.9 °F - 55.9 °F 68% 30.10 in 3.0 mi South 10.4 mph - N/A   Haze
6:53 PM 61.0 °F - 55.9 °F 83% 30.15 in 4.0 mi SSE 8.1 mph - 0.02 in   Haze
7:53 PM 59.0 °F - 55.0 °F 87% 30.18 in 7.0 mi ESE 5.8 mph - N/A   Overcast
8:53 PM 57.0 °F - 53.1 °F 87% 30.21 in 10.0 mi ESE 6.9 mph - 0.01 in   Overcast
9:24 PM 57.0 °F - 52.0 °F 83% 30.20 in 10.0 mi SE 3.5 mph - N/A   Overcast
9:49 PM 57.2 °F - 53.6 °F 88% 30.20 in 10.0 mi East 5.8 mph - N/A   Overcast
9:53 PM 55.9 °F - 53.1 °F 90% 30.22 in 9.0 mi ESE 3.5 mph - N/A   Overcast
10:05 PM 57.0 °F - 53.1 °F 87% 30.21 in 8.0 mi Calm Calm - N/A   Overcast
10:53 PM 57.0 °F - 52.0 °F 83% 30.22 in 10.0 mi SSE 4.6 mph - N/A   Overcast
11:53 PM 55.9 °F - 51.1 °F 84% 30.21 in 10.0 mi SSE 5.8 mph - N/A   Overcast